COSMOS 2318 (GLONASS)

Satellite information

Favourite Embed

Satellite Type and Status

PAYLOADIN ORBIT

Key statistics

Satellite COSMOS 2318 (GLONASS) at a glance.

Uptime

11101

Days in orbit

Revolutions

≈ 2.1

Per day

Orbit

MEO

Medium Earth Orbit

Inclination

65.5

Latest

Satellite identification and parameters

Extended collection of information and parameters for COSMOS 2318 (GLONASS).

Object identification

Identified? True

Debris? False

Object name: COSMOS 2318 (GLONASS)

International designator: 1995-037C

Object number (NORAD): 23622

Object ID (CCSDS): 23622

Country: COMMONWEALTH OF INDEPENDENT STATES (CIS)

Current information (Y/N): Y

RCS size: LARGE

Orbital parameters

Period: 675.733 minutes

Inclination: 65.4682 deg

SMA: 25508.037 km

Apoapsis: 19172.855 km

Periapsis: 19086.95 km

RAAN: 208.9071 deg

Eccentricy: 0.00168388

Argument of periapsis: 68.2495 deg

Mean anomaly: 82.3795 deg

Mean motion: 2.13101842 rev/day

Mean motion (dot): 0.00000037 rev/day2

B* drag term: 0.0 1/REarth

Two-line elements (TLE)

Creation date: Dec. 11, 2025, 7:14 p.m.

Reference frame: TEME

Reference center: EARTH

Epoch: Dec. 11, 2025, 12:08 p.m. UTC

TLE line 0: 0 COSMOS 2318 (GLONASS)

TLE line 1: 1 23622U 95037C 25345.50595251 .00000037 00000-0 00000-0 0 9990

TLE line 2: 2 23622 65.4682 208.9071 0016839 68.2495 82.3795 2.13101842236238

Live tracking on map

Real-time ground track for satellite COSMOS 2318 (GLONASS).

In-orbit conjunctions

A list of the most updated potential collisions computed for object COSMOS 2318 (GLONASS).

Target Orbit TCA Probability of collision Miss distance Type
SL-12 R/B(2) MEO 2024-06-06 04:56:22 TBA 3914.0 (m) ROCKET BODY

Associated space launch

GLONASS navigation satellites

COSMOS 2318 (GLONASS) was lifted into orbit during the mission ‘Proton | Uragan 66 to 68’, on board a Proton space rocket.

The launch took place on July 24, 1995, 3:52 p.m. from 200/39 (200L).

For more information about the launch, click the button.

Launch to space Proton | Uragan 66 to 68
Proton | Uragan 66 to 68

Agency: N/A

Status: Launch Successful

Launch date: July 24, 1995, 3:52 p.m. UTC

Rocket: Proton

Launch pad: 200/39 (200L)

Location: Baikonur Cosmodrome, Republic of Kazakhstan

...

Latest news about this satellite

There are no fresh news available about this satellite. Check back as we update our databases every day.


Newsletter sign-up

Weekly statistics, charts and insights to help you stay on top of the space industry.